This is the latest recevied weather packets stored in our database for station/object W1HVD. If no packets are shown the sender has not sent any weather packets the latest 10 day(s).
| Time | Temp. | Humidity | Pressure | Rain* | Wind** | Luminosity | Snow |
|---|---|---|---|---|---|---|---|
| 1778203368 | 10.56° C | 59% | 1007.8 hPa | 0 mm | - | 0 W/m² | - |
| 1778203066 | 10.56° C | 55% | 1007.7 hPa | 0 mm | - | 0 W/m² | - |
| 1778202763 | 11.11° C | 52% | 1007.4 hPa | 0 mm | - | 0 W/m² | - |
| 1778202460 | 11.11° C | 50% | 1007.6 hPa | 0 mm | - | 0 W/m² | - |
| 1778202158 | 11.11° C | 48% | 1007.5 hPa | 0 mm | - | 0 W/m² | - |
| 1778201855 | 11.67° C | 48% | 1007.6 hPa | 0 mm | - | 0 W/m² | - |
| 1778201552 | 11.67° C | 48% | 1007.4 hPa | 0 mm | - | 0 W/m² | - |
| 1778201247 | 11.67° C | 49% | 1007.3 hPa | 0 mm | - | 0 W/m² | - |
| 1778200944 | 11.67° C | 47% | 1007 hPa | 0 mm | - | 0 W/m² | - |
| 1778200641 | 11.67° C | 51% | 1006.8 hPa | 0 mm | - | 0 W/m² | - |
| 1778200338 | 11.67° C | 53% | 1006.6 hPa | 0 mm | - | 0 W/m² | - |
| 1778200034 | 11.67° C | 47% | 1006.4 hPa | 0 mm | - | 0 W/m² | - |
| 1778199732 | 12.22° C | 48% | 1006.7 hPa | 0 mm | - | 0 W/m² | - |
| 1778199428 | 12.78° C | 44% | 1006.5 hPa | 0 mm | - | 0 W/m² | - |
| 1778199123 | 12.78° C | 42% | 1006.2 hPa | 0 mm | - | 0 W/m² | - |
| 1778198820 | 13.33° C | 42% | 1006.4 hPa | 0 mm | - | 0 W/m² | - |
| 1778198517 | 13.33° C | 42% | 1006.4 hPa | 0 mm | - | 1 W/m² | - |
| 1778198213 | 13.89° C | 41% | 1006.4 hPa | 0 mm | - | 1 W/m² | - |
| 1778197911 | 13.89° C | 40% | 1006.3 hPa | 0 mm | - | 2 W/m² | - |
| 1778197608 | 13.89° C | 39% | 1006.3 hPa | 0 mm | - | 4 W/m² | - |
| 1778197304 | 13.89° C | 39% | 1006.3 hPa | 0 mm | - | 6 W/m² | - |
| 1778197001 | 14.44° C | 39% | 1006.2 hPa | 0 mm | - | 8 W/m² | - |
| 1778196700 | 14.44° C | 41% | 1006 hPa | 0 mm | - | 10 W/m² | - |
| 1778196396 | 14.44° C | 39% | 1006.1 hPa | 0 mm | - | 13 W/m² | - |
| 1778196093 | 15° C | 35% | 1005.9 hPa | 0 mm | - | 15 W/m² | - |
* Rain latest hour (hover to see other rain measurements)
** Current wind speed in m/s (hover to see current wind gust speed)